This demonstration page uses our WeatherBlox Daily Observations layout. Learn more.

Left ArrowRight Arrow

Hourly Observations for December 7, 2020

Temp ( °F °C ) Dew Point ( °F °C ) Humidity (%) Winds ( mph kmh ) Pressure ( in mb ) Visibility ( mi km ) Precip ( " mm )
12:54 am 00:54 Clear with Mist and Fog 22 -5.6 20 -6.7 92 92 S 6 9 30.17 1022 6 9.65604 0 0
1:54 am 01:54 Clear 22 -5.6 19 -7.2 89 89 SSE 5 7 30.15 1021 7 11.26538 0 0
2:54 am 02:54 Clear 21 -6.1 18 -7.8 88 88 S 5 7 30.15 1021 7 11.26538 0 0
3:54 am 03:54 Clear 23 -5 19 -7.2 85 85 Calm 30.14 1021 9 14.48406 0 0
4:54 am 04:54 Clear 23 -5 19 -7.2 85 85 Calm 30.13 1020 10 16.0934 0 0
5:54 am 05:54 Clear 22 -5.6 18 -7.8 85 85 SSW 3 6 30.13 1020 10 16.0934 0 0
6:54 am 06:54 Clear 19 -7.2 16 -8.9 88 88 Calm 30.14 1021 10 16.0934 0 0
7:54 am 07:54 Sunny 21 -6.1 18 -7.8 88 88 Calm 30.15 1021 10 16.0934 0 0
8:54 am 08:54 Sunny 30 -1.1 26 -3.3 85 85 Calm 30.17 1022 10 16.0934 0 0
9:54 am 09:54 Sunny 41 5 28 -2.2 60 60 Calm 30.17 1022 N/A 0 0
10:54 am 10:54 Sunny 46 7.8 28 -2.2 50 50 NNW 8 13 30.16 1022 10 16.0934 0 0
11:54 am 11:54 Sunny 50 10 29 -1.7 44 44 NNW 8 13 30.14 1021 10 16.0934 0 0
12:54 pm 12:54 Sunny 55 12.8 28 -2.2 35 35 WNW 9 15 30.1 1019 10 16.0934 0 0
1:54 pm 13:54 Sunny 56 13.3 28 -2.2 34 34 NW 13 20 30.1 1019 10 16.0934 0 0
2:54 pm 14:54 Sunny 57 13.9 25 -3.9 29 29 NW 12 19 30.09 1019 10 16.0934 0 0
3:54 pm 15:54 Sunny 57 13.9 23 -5 27 27 NW 8 13 30.08 1019 10 16.0934 0 0
4:54 pm 16:54 Sunny 51 10.6 24 -4.4 35 35 Calm 30.09 1019 10 16.0934 0 0
5:54 pm 17:54 Clear 42 5.6 22 -5.6 45 45 Calm 30.1 1019 10 16.0934 0 0
6:54 pm 18:54 Clear 32 0 20 -6.7 61 61 NNW 3 6 30.11 1020 10 16.0934 0 0
7:54 pm 19:54 Clear 29 -1.7 19 -7.2 66 66 N 6 9 30.14 1021 10 16.0934 0 0
8:54 pm 20:54 Clear 33 0.6 21 -6.1 61 61 N 6 9 30.14 1021 10 16.0934 0 0
9:54 pm 21:54 Clear 31 -0.6 20 -6.7 64 64 Calm 30.15 1021 10 16.0934 0 0
10:54 pm 22:54 Clear 24 -4.4 17 -8.3 75 75 Calm 30.16 1021 10 16.0934 0 0

Powered by AerisWeather